This demonstration page uses our WeatherBlox Daily Observations layout. Learn more.

Left ArrowRight Arrow

38.20091, -84.87328

Hourly Observations for September 1, 2021

Temp ( °F °C ) Dew Point ( °F °C ) Humidity (%) Winds ( mph kmh ) Pressure ( in mb ) Visibility ( mi km ) Precip ( " mm )
12:17 am 00:17 Cloudy with Light Rain 70 21.1 69 20.6 97 97 N 6 9 29.64 1004 3 5 0.03 0.76
12:26 am 00:26 Cloudy with Light Rain 70 21.1 69 20.6 97 97 VRB 6 9 29.64 1004 3 4 0.03 0.76
12:53 am 00:53 Cloudy with Light Rain 70 21.1 69 20.6 97 97 N 6 9 29.63 1003 3 4 0.06 1.52
1:03 am 01:03 Cloudy with Light Rain 70 21.1 69 20.6 97 97 N 5 7 29.63 1003 3 5 0.01 0.25
1:53 am 01:53 Cloudy with Light Rain 70 21.1 69 20.6 97 97 NNE 6 9 29.62 1003 3 5 0.04 1.02
2:17 am 02:17 Cloudy with Rain 70 21.1 69 20.6 97 97 NNE 3 6 29.63 1003 3 4 0.04 1.02
2:37 am 02:37 Cloudy with Heavy Rain 70 21.1 69 20.6 97 97 N 6 9 29.63 1003 2 3 0.17 4.32
2:44 am 02:44 Cloudy with Heavy Rain 70 21.1 69 20.6 97 97 NNE 7 11 29.63 1003 2 3 0.21 5.33
2:53 am 02:53 Cloudy with Rain 70 21.1 69 20.6 97 97 NNE 6 9 29.62 1003 3 4 0.23 5.84
3:10 am 03:10 Cloudy with Light Rain 70 21.1 69 20.6 97 97 N 5 7 29.62 1003 5 8 0.03 0.76
3:34 am 03:34 Cloudy with Light Rain 70 21.1 69 20.6 97 97 N 7 11 29.62 1003 7 11 0.04 1.02
3:41 am 03:41 Cloudy with Light Rain 70 21.1 69 20.6 97 97 NNW 7 11 29.63 1003 6 10 0.04 1.02
3:53 am 03:53 Cloudy with Light Rain 70 21.1 69 20.6 97 97 NNW 7 11 29.62 1003 4 6 0.05 1.27
4:53 am 04:53 Cloudy 70 21.1 68 20 93 93 N 7 11 29.63 1004 10 16 0.04 1.02
5:53 am 05:53 Cloudy 70 21.1 68 20 93 93 NNW 9 15 29.65 1004 10 16 0.00 0.00
6:24 am 06:24 Cloudy 70 21.1 67 19.4 90 90 N 10 17 29.66 1004 10 16 0.00 0.00
6:43 am 06:43 Mostly Cloudy 70 21.1 67 19.4 90 90 N 8 13 29.66 1004 10 16 0.00 0.00
6:53 am 06:53 Partly Cloudy 70 21.1 67 19.4 90 90 N 10 17 29.67 1005 10 16 0.00 0.00
6:57 am 06:57 Mostly Cloudy 70 21.1 67 19.4 90 90 N 7 11 29.67 1005 10 16 0.00 0.00
7:36 am 07:36 Cloudy 70 21.1 68 20 93 93 NNW 8 13 29.69 1005 10 16 0.00 0.00
7:51 am 07:51 Cloudy 70 21 68 20 94 94 NNW 9 15 29.70 1006 10 16 0.00 0.00
7:53 am 07:53 Cloudy 70 21.1 68 20 93 93 NNW 9 15 29.70 1006 10 16 0.00 0.00
8:02 am 08:02 Cloudy 70 21.1 68 20 93 93 NNW 9 15 29.71 1006 10 16 0.00 0.00
8:27 am 08:27 Cloudy 70 21.1 67 19.4 90 90 NNW 10 17 29.72 1006 10 16 0.00 0.00
8:53 am 08:53 Cloudy 68 20 65 18.3 90 90 N 10 17 29.74 1007 10 16 0.00 0.00
9:18 am 09:18 Cloudy 68 20 65 18.3 90 90 N 8 13 29.74 1007 10 16 0.00 0.00
9:51 am 09:51 Mostly Cloudy 70 21 64 18 83 83 VRB 6 9 29.75 1007 10 16 0.00 0.00
9:53 am 09:53 Mostly Cloudy 70 21.1 65 18.3 84 84 N 9 15 29.75 1007 10 16 0.00 0.00
10:53 am 10:53 Partly Cloudy 74 23.3 66 18.9 76 76 NNW 8 13 29.77 1008 10 16 0.00 0.00
11:53 am 11:53 Partly Cloudy 76 24.4 64 17.8 67 67 NNW 10 17 29.78 1009 10 16 0.00 0.00
12:53 pm 12:53 Mostly Sunny 79 26.1 64 17.8 60 60 NNW 13 20 29.78 1009 10 16 0.00 0.00
1:53 pm 13:53 Mostly Sunny 81 27.2 63 17.2 54 54 VRB 7 11 29.79 1009 10 16 0.00 0.00
2:53 pm 14:53 Mostly Sunny 82 27.8 63 17.2 53 53 NNW 12 19 29.80 1009 10 16 0.00 0.00
3:53 pm 15:53 Mostly Sunny 82 27.8 62 16.7 51 51 N 9 15 29.80 1009 10 16 0.00 0.00
4:53 pm 16:53 Mostly Sunny 80 26.7 62 16.7 54 54 N 13 20 29.81 1009 10 16 0.00 0.00
5:53 pm 17:53 Sunny 80 26.7 62 16.7 54 54 N 8 13 29.81 1010 10 16 0.00 0.00
6:53 pm 18:53 Sunny 81 27.2 63 17.2 54 54 NNW 8 13 29.82 1010 10 16 0.00 0.00
7:53 pm 19:53 Mostly Sunny 76 24.4 63 17.2 64 64 NNW 6 9 29.84 1010 10 16 0.00 0.00
8:53 pm 20:53 Partly Cloudy 74 23.3 63 17.2 69 69 N 7 11 29.86 1011 10 16 0.00 0.00
9:53 pm 21:53 Clear 72 22.2 62 16.7 71 71 N 6 9 29.89 1012 10 16 0.00 0.00
10:53 pm 22:53 Clear 71 21.7 61 16.1 71 71 N 5 7 29.91 1013 10 16 0.00 0.00
11:53 pm 23:53 Clear 69 20.6 60 15.6 73 73 N 6 9 29.93 1014 10 16 0.00 0.00

Powered by AerisWeather